Simultaneous Nadir Overpasses (SNOs) Predictions

Prediction of SNOs between FY3D and AQUA Satellite Orbit:

Table of predicted SNOs for the next 14.0 days since TLE Epoch: 12/4/2021
Index Date (FY3D) Time (FY3D) Lat,Lon (FY3D) SZA (FY3D ) Date (AQUA) Time (AQUA) Lat,Lon (AQUA) SZA (AQUA ) Distance(km) Time Diff (sec)
1 12/06/2021 13:01:27 71.81, -17.48 94.26 12/06/2021 13:02:16 71.82, -17.55 94.27 2.73 49
2 12/06/2021 13:51:37 -70.02, 152.86 87.51 12/06/2021 13:51:08 -70.01, 152.91 87.52 2.33 29
3 12/09/2021 04:28:42 -72.10, -69.81 85.17 12/09/2021 04:29:26 -72.10, -69.80 85.17 0.07 44
4 12/09/2021 05:18:38 69.44, 101.94 92.20 12/09/2021 05:18:05 69.44, 101.92 92.20 0.85 33
5 12/11/2021 19:55:55 72.22,-121.83 95.19 12/11/2021 19:56:34 72.22,-121.79 95.18 1.69 39
6 12/11/2021 20:45:50 -69.64, 49.87 87.38 12/11/2021 20:45:12 -69.64, 49.89 87.39 0.82 38
7 12/14/2021 11:23:05 -72.25,-173.65 84.61 12/14/2021 11:23:39 -72.24,-173.60 84.62 2.07 34
8 12/14/2021 12:13:03 69.72, -2.02 92.87 12/14/2021 12:12:20 69.71, -1.98 92.86 1.79 43
9 12/17/2021 02:50:16 72.24, 134.58 95.51 12/17/2021 02:50:45 72.23, 134.65 95.50 2.67 29



Historial Predications of SNOs between FY3D and AQUA
